Location: Frydek-Mistek
(49.6830°N, 18.3330°E)
Time: 22:20:01
(UTC+02:00)

Courier 1B Rocket - All Passes

Search period start: 23 July 2014 00:00
Search period end: 02 August 2014 00:00
Orbit: 921 x 1202 km, 28.2° (Epoch: 22 July)

Date Brightness Start Highest point End Pass type
(mag) Time Alt. Az. Time Alt. Az. Time Alt. Az.
23 Jul - 18:37:41 10° SSW 18:40:08 12° S 18:42:33 10° SSE daylight
23 Jul - 20:30:59 10° SSW 20:32:10 10° S 20:33:20 10° S daylight
24 Jul - 17:37:34 10° S 17:39:32 11° S 17:41:29 10° SSE daylight
24 Jul - 19:29:04 10° SSW 19:31:36 12° S 19:34:05 10° SSE daylight
25 Jul - 18:27:59 10° SSW 18:31:00 13° S 18:33:58 10° SSE daylight
26 Jul - 17:27:20 10° SSW 17:30:23 13° S 17:33:23 10° SSE daylight
26 Jul - 19:20:21 10° SSW 19:22:28 11° S 19:24:33 10° S daylight
27 Jul - 16:27:09 10° S 16:29:44 12° S 16:32:18 10° SSE daylight
27 Jul - 18:18:46 10° SSW 18:21:52 13° S 18:24:53 10° SSE daylight
28 Jul - 15:28:10 10° S 15:29:06 10° SSE 15:30:03 10° SSE daylight
28 Jul - 17:17:46 10° SSW 17:21:13 14° S 17:24:37 10° SSE daylight
29 Jul - 16:17:10 10° SSW 16:20:33 13° S 16:23:55 10° SSE daylight
29 Jul - 18:10:02 10° SSW 18:12:41 12° S 18:15:18 10° S daylight
30 Jul - 15:17:03 10° SSW 15:19:54 12° S 15:22:44 10° SSE daylight
30 Jul - 17:08:38 10° SSW 17:12:03 13° S 17:15:25 10° SSE daylight
31 Jul - 14:17:59 10° S 14:19:15 10° SSE 14:20:32 10° SSE daylight
31 Jul - 16:07:44 10° SSW 16:11:23 14° S 16:15:00 10° SSE daylight
31 Jul - 18:02:18 10° SSW 18:03:29 10° SSW 18:04:40 10° S daylight
01 Aug - 15:07:14 10° SSW 15:10:42 14° S 15:14:11 10° SSE daylight
01 Aug - 16:59:58 10° SSW 17:02:51 12° S 17:05:44 10° SSE daylight
